Jamaica, NY

1:45 AM EST on December 06, 2016 (GMT -0500)
Kennedy International

Weather History for KJFK - October, 2012

Change the Weather History Date:

Tuesday, October 30, 2012

  Actual Average Record
Temperature  
Mean Temperature 54 °F 52 °F  
Max Temperature 59 °F 60 °F 79 °F (1961)
Min Temperature 48 °F 45 °F 30 °F (1962)
Degree Days  
Heating Degree Days 11 13  
Month to date heating degree days 177 248  
Since 1 July heating degree days 188 287  
Cooling Degree Days 0 0  
Month to date cooling degree days 17 12  
Year to date cooling degree days 1229 1003  
Growing Degree Days 4 (Base 50)    
Moisture  
Dew Point 49 °F    
Average Humidity 80    
Maximum Humidity 93    
Minimum Humidity 66    
Precipitation  
Precipitation 0.04 in 0.10 in 0.68 in (1993)
Month to date precipitation 2.21 3.51  
Year to date precipitation 33.34 35.97  
Snow  
Snow 0.00 in 0.00 in - ()
Month to date snowfall 0.0 0.0  
Since 1 July snowfall 0.0 0.0  
Snow Depth 0.00 in    
Sea Level Pressure  
Sea Level Pressure 29.39 in    
Wind  
Wind Speed 20 mph (South)    
Max Wind Speed 37 mph    
Max Gust Speed 44 mph    
Visibility 9 miles    
Events Rain    
T = Trace of Precipitation, MM = Missing Value Source: NWS Daily Summary

Daily Weather History Graph

Daily Weather History Graph

Search for Another Location

Airport or City:

Trip Planner

Search our weather history database for the weather conditions in past years. The results will help you decide how hot, cold, wet, or windy it might be!

Date:

Astronomy

Oct. 30, 2012 Rise Set
Actual Time 7:23 AM EDT 5:53 PM EDT
Civil Twilight 6:55 AM EDT 6:21 PM EDT
Nautical Twilight 6:22 AM EDT 6:53 PM EDT
Astronomical Twilight 5:51 AM EDT 7:25 PM EDT
Moon 6:20 PM EDT (10/30) 8:07 AM EDT (10/30)
Length of Visible Light 11h 26m
Length of Day
10h 29m
Full, 99% of the Moon is Illuminated
Oct 30
Full
Nov 6
Last Quarter
Nov 13
New
Nov 20
First Quarter
Nov 28
Full

Hourly Weather History & Observations

Time (EDT) Temp. Dew Point Humidity Pressure Visibility Wind Dir Wind Speed Gust Speed Precip Events Conditions
12:51 AM 59.0 °F 55.9 °F 90% 29.03 in 5.0 mi South 32.2 mph 38.0 mph N/A Rain Light Rain
4:51 AM 59.0 °F 55.4 °F 88% 29.18 in 6.0 mi South 25.3 mph 38.0 mph N/A   Overcast
5:51 AM 59.0 °F 55.0 °F 87% 29.21 in 6.0 mi South 26.5 mph 29.9 mph N/A   Overcast
6:51 AM 57.9 °F 55.0 °F 90% 29.25 in 7.0 mi South 23.0 mph 31.1 mph N/A   Mostly Cloudy
7:51 AM 57.9 °F 53.1 °F 84% 29.30 in 8.0 mi South 23.0 mph 34.5 mph N/A Rain Light Rain
8:51 AM 57.9 °F 51.1 °F 78% 29.32 in 9.0 mi SSW 26.5 mph 29.9 mph N/A   Mostly Cloudy
9:51 AM 57.9 °F 52.0 °F 81% 29.33 in 10.0 mi South 36.8 mph 40.3 mph N/A Rain Light Rain
10:51 AM 59.0 °F 52.0 °F 78% 29.37 in 10.0 mi South 25.3 mph 32.2 mph N/A   Mostly Cloudy
11:51 AM 54.0 °F 48.0 °F 80% 29.40 in 7.0 mi South 29.9 mph 43.7 mph 0.01 in Rain Light Rain
12:08 PM 53.6 °F 46.4 °F 77% 29.40 in 10.0 mi South 28.8 mph 39.1 mph 0.00 in   Mostly Cloudy
12:47 PM 53.6 °F 48.2 °F 82% 29.41 in 10.0 mi South 23.0 mph 27.6 mph 0.00 in Rain Light Rain
12:51 PM 54.0 °F 48.0 °F 80% 29.42 in 10.0 mi South 21.9 mph 27.6 mph 0.00 in   Mostly Cloudy
1:51 PM 55.0 °F 46.9 °F 74% 29.42 in 9.0 mi South 21.9 mph 27.6 mph 0.00 in Rain Light Rain
2:10 PM 55.4 °F 46.4 °F 72% 29.42 in 10.0 mi South 21.9 mph 29.9 mph 0.00 in   Overcast
2:51 PM 54.0 °F 46.0 °F 75% 29.42 in 10.0 mi South 21.9 mph 31.1 mph 0.00 in   Overcast
3:51 PM 55.9 °F 45.0 °F 67% 29.44 in 10.0 mi South 23.0 mph 31.1 mph N/A   Mostly Cloudy
4:51 PM 55.9 °F 45.0 °F 67% 29.44 in 10.0 mi SSE 25.3 mph 32.2 mph N/A   Mostly Cloudy
5:27 PM 55.4 °F 46.4 °F 72% 29.45 in 10.0 mi South 19.6 mph 24.2 mph 0.00 in   Mostly Cloudy
5:51 PM 54.0 °F 48.0 °F 80% 29.47 in 7.0 mi South 18.4 mph - 0.00 in Rain Light Rain
6:51 PM 52.0 °F 46.9 °F 83% 29.48 in 6.0 mi SSW 6.9 mph - 0.01 in Rain Light Rain
7:51 PM 52.0 °F 48.0 °F 86% 29.49 in 10.0 mi South 6.9 mph - 0.02 in   Overcast
8:47 PM 51.8 °F 48.2 °F 88% 29.48 in 10.0 mi South 5.8 mph - N/A   Mostly Cloudy
8:51 PM 52.0 °F 48.9 °F 89% 29.48 in 10.0 mi South 6.9 mph - N/A   Mostly Cloudy
9:51 PM 50.0 °F 46.0 °F 86% 29.49 in 10.0 mi WSW 9.2 mph - N/A   Mostly Cloudy
10:23 PM 50.0 °F 44.6 °F 82% 29.50 in 10.0 mi WSW 11.5 mph - N/A   Overcast
10:51 PM 48.9 °F 44.1 °F 83% 29.50 in 10.0 mi SW 15.0 mph - N/A   Overcast
11:51 PM 48.9 °F 42.1 °F 77% 29.50 in 10.0 mi SW 9.2 mph - N/A   Overcast